Location: Unspecified
(0.0000°N, 0.0000°E)
Time: 10:12:41
(UTC+02:00)

ARIANE 5 R/B - Visible Passes

Search period start: 26 April 2015 00:00
Search period end: 06 May 2015 00:00
Orbit: 539 x 35589 km, 4.7° (Epoch: 23 April)

Date Brightness Start Highest point End Pass type
(mag) Time Alt. Az. Time Alt. Az. Time Alt. Az.
27 Apr 4.9 05:19:11 28° ENE 05:19:11 28° ENE 05:23:06 10° E visible
27 Apr 7.6 16:55:23 10° W 02:02:51 11° W 02:02:51 11° W visible
28 Apr 5.8 13:22:26 10° W 23:08:58 85° N 23:10:44 78° ENE visible
30 Apr 4.8 07:16:27 10° W 07:21:37 78° N 17:01:04 10° E visible
01 May 6.9 15:41:40 10° W 01:08:09 27° W 01:08:09 27° W visible
02 May 6.1 12:22:23 10° W 22:06:57 88° N 22:16:01 45° E visible
04 May 3.8 06:21:10 39° WNW 06:23:02 70° N 06:40:50 10° E visible
